| time (UTC) | temp C | wind direction | speed KPH | gust KPH | rain 1hr cm | rain 24hr cm | rain mn cm | humidity % | barometer mb |
| 20260508104957 | 16 | 183 | 4.8 | 17.7 | 0.00 | 0.00 | 0.00 | 55 | 1016.1 |
| 20260508104500 | 16 | 187 | 4.8 | 17.7 | 0.00 | 0.00 | 0.00 | 56 | 1016.1 |
| 20260508103958 | 16 | 176 | 4.8 | 11.3 | 0.00 | 0.00 | 0.00 | 57 | 1016.1 |
| 20260508103456 | 16 | 166 | 3.2 | 9.7 | 0.00 | 0.00 | 0.00 | 58 | 1016.2 |
| 20260508103001 | 15 | 166 | 3.2 | 8.0 | 0.00 | 0.00 | 0.00 | 59 | 1016.3 |
| 20260508101459 | 15 | 163 | 3.2 | 11.3 | 0.00 | 0.00 | 0.00 | 60 | 1016.4 |
| 20260508100958 | 15 | 151 | 3.2 | 8.0 | 0.00 | 0.00 | 0.00 | 60 | 1016.4 |
| 20260508100458 | 15 | 155 | 3.2 | 9.7 | 0.00 | 0.00 | 0.00 | 60 | 1016.4 |
| 20260508100001 | 15 | 170 | 4.8 | 11.3 | 0.00 | 0.00 | 0.00 | 62 | 1016.4 |
| 20260508094500 | 14 | 165 | 6.4 | 14.5 | 0.00 | 0.00 | 0.00 | 61 | 1016.4 |
| 20260508093956 | 14 | 173 | 6.4 | 14.5 | 0.00 | 0.00 | 0.00 | 63 | 1016.4 |
| 20260508093457 | 14 | 171 | 8.0 | 14.5 | 0.00 | 0.00 | 0.00 | 63 | 1016.4 |
| 20260508093000 | 15 | 162 | 8.0 | 16.1 | 0.00 | 0.00 | 0.00 | 61 | 1016.4 |
| 20260508092456 | 15 | 151 | 8.0 | 16.1 | 0.00 | 0.00 | 0.00 | 63 | 1016.3 |
| 20260508091957 | 15 | 144 | 8.0 | 14.5 | 0.00 | 0.00 | 0.00 | 63 | 1016.3 |
| 20260508091500 | 14 | 140 | 6.4 | 12.9 | 0.00 | 0.00 | 0.00 | 63 | 1016.3 |
| 20260508090956 | 14 | 141 | 6.4 | 12.9 | 0.00 | 0.00 | 0.00 | 66 | 1016.2 |
| 20260508090457 | 14 | 145 | 6.4 | 12.9 | 0.00 | 0.00 | 0.00 | 65 | 1016.2 |
| 20260508085959 | 14 | 149 | 6.4 | 11.3 | 0.00 | 0.00 | 0.00 | 66 | 1016.2 |
| 20260508085458 | 14 | 152 | 6.4 | 12.9 | 0.00 | 0.00 | 0.00 | 65 | 1016.2 |
| 20260508084956 | 15 | 147 | 6.4 | 12.9 | 0.00 | 0.00 | 0.00 | 64 | 1016.2 |
| 20260508083957 | 14 | 160 | 6.4 | 14.5 | 0.00 | 0.00 | 0.00 | 67 | 1016.1 |
| 20260508083458 | 14 | 142 | 8.0 | 12.9 | 0.00 | 0.00 | 0.00 | 68 | 1016.1 |
| 20260508083000 | 13 | 148 | 8.0 | 12.9 | 0.00 | 0.00 | 0.00 | 69 | 1016.1 |
| 20260508082456 | 13 | 160 | 8.0 | 14.5 | 0.00 | 0.00 | 0.00 | 68 | 1016.0 |
| 20260508081958 | 13 | 165 | 6.4 | 14.5 | 0.00 | 0.00 | 0.00 | 68 | 1016.0 |
| 20260508081500 | 13 | 162 | 6.4 | 12.9 | 0.00 | 0.00 | 0.00 | 69 | 1016.1 |
| 20260508080457 | 13 | 152 | 8.0 | 16.1 | 0.00 | 0.00 | 0.00 | 69 | 1016.1 |
| 20260508080000 | 13 | 146 | 8.0 | 12.9 | 0.00 | 0.00 | 0.00 | 70 | 1016.1 |
| 20260508075457 | 12 | 143 | 8.0 | 14.5 | 0.00 | 0.00 | 0.00 | 71 | 1016.1 |
| 20260508074459 | 12 | 150 | 6.4 | 14.5 | 0.00 | 0.00 | 0.00 | 73 | 1016.1 |
| 20260508073957 | 12 | 157 | 4.8 | 11.3 | 0.00 | 0.00 | 0.00 | 75 | 1016.0 |
| 20260508073456 | 12 | 165 | 4.8 | 9.7 | 0.00 | 0.00 | 0.00 | 77 | 1016.0 |
| 20260508073001 | 12 | 160 | 3.2 | 9.7 | 0.00 | 0.00 | 0.00 | 78 | 1016.0 |
| 20260508072456 | 12 | 153 | 3.2 | 8.0 | 0.00 | 0.00 | 0.00 | 79 | 1015.9 |
| 20260508071958 | 11 | 147 | 4.8 | 11.3 | 0.00 | 0.00 | 0.00 | 80 | 1015.8 |
| 20260508071459 | 11 | 144 | 4.8 | 11.3 | 0.00 | 0.00 | 0.00 | 80 | 1015.8 |
| 20260508070956 | 11 | 149 | 3.2 | 6.4 | 0.00 | 0.00 | 0.00 | 81 | 1015.8 |
| 20260508070458 | 11 | 151 | 1.6 | 4.8 | 0.00 | 0.00 | 0.00 | 81 | 1015.7 |
| 20260508065959 | 11 | 0 | 0.0 | 6.4 | 0.00 | 0.00 | 0.00 | 81 | 1015.7 |
| 20260508065458 | 11 | 0 | 0.0 | 6.4 | 0.00 | 0.00 | 0.00 | 82 | 1015.6 |
| 20260508064956 | 10 | 135 | 1.6 | 4.8 | 0.00 | 0.00 | 0.00 | 82 | 1015.6 |
| 20260508063956 | 10 | 0 | 0.0 | 1.6 | 0.00 | 0.00 | 0.00 | 83 | 1015.5 |
| 20260508063457 | 10 | 0 | 0.0 | 1.6 | 0.00 | 0.00 | 0.00 | 83 | 1015.5 |
| 20260508062959 | 10 | 0 | 0.0 | 1.6 | 0.00 | 0.00 | 0.00 | 83 | 1015.4 |
| 20260508062456 | 10 | 0 | 0.0 | 3.2 | 0.00 | 0.00 | 0.00 | 84 | 1015.3 |
| 20260508061459 | 9 | 0 | 0.0 | 1.6 | 0.00 | 0.00 | 0.00 | 85 | 1015.4 |
| 20260508060958 | 9 | 0 | 0.0 | 0.0 | 0.00 | 0.00 | 0.00 | 86 | 1015.3 |
| 20260508055959 | 8 | 0 | 0.0 | 0.0 | 0.00 | 0.00 | 0.00 | 87 | 1015.3 |
| 20260508054956 | 8 | 0 | 0.0 | 0.0 | 0.00 | 0.00 | 0.00 | 87 | 1015.2 |
| 20260508053456 | 8 | 0 | 0.0 | 4.8 | 0.00 | 0.00 | 0.00 | 87 | 1015.2 |
| 20260508052959 | 8 | 124 | 1.6 | 4.8 | 0.00 | 0.00 | 0.00 | 87 | 1015.1 |
| 20260508051956 | 7 | 0 | 0.0 | 3.2 | 0.00 | 0.00 | 0.00 | 87 | 1015.1 |
| 20260508051459 | 7 | 0 | 0.0 | 3.2 | 0.00 | 0.00 | 0.00 | 87 | 1015.1 |
| 20260508050957 | 7 | 0 | 0.0 | 3.2 | 0.00 | 0.00 | 0.00 | 87 | 1015.0 |
| 20260508050457 | 7 | 0 | 0.0 | 1.6 | 0.00 | 0.00 | 0.00 | 87 | 1015.0 |
| 20260508050000 | 7 | 0 | 0.0 | 1.6 | 0.00 | 0.00 | 0.00 | 87 | 1015.0 |
| 20260508045457 | 7 | 0 | 0.0 | 0.0 | 0.00 | 0.00 | 0.00 | 88 | 1015.0 |
| 20260508044957 | 7 | 0 | 0.0 | 1.6 | 0.00 | 0.00 | 0.00 | 87 | 1014.9 |
| 20260508044500 | 7 | 0 | 0.0 | 3.2 | 0.00 | 0.00 | 0.00 | 87 | 1014.9 |
| 20260508043458 | 7 | 0 | 0.0 | 1.6 | 0.00 | 0.00 | 0.00 | 87 | 1015.0 |
| 20260508042959 | 7 | 0 | 0.0 | 1.6 | 0.00 | 0.00 | 0.00 | 87 | 1014.9 |
| 20260508042456 | 7 | 0 | 0.0 | 0.0 | 0.00 | 0.00 | 0.00 | 87 | 1014.9 |
| 20260508041957 | 7 | 0 | 0.0 | 0.0 | 0.00 | 0.00 | 0.00 | 87 | 1014.9 |
| 20260508041500 | 7 | 0 | 0.0 | 3.2 | 0.00 | 0.00 | 0.00 | 87 | 1014.9 |
| 20260508040958 | 7 | 127 | 1.6 | 4.8 | 0.00 | 0.00 | 0.00 | 86 | 1014.9 |
| 20260508040000 | 7 | 139 | 4.8 | 6.4 | 0.00 | 0.00 | 0.00 | 86 | 1014.8 |
| 20260508035457 | 7 | 141 | 4.8 | 6.4 | 0.00 | 0.00 | 0.00 | 86 | 1014.8 |
| 20260508034957 | 7 | 139 | 4.8 | 8.0 | 0.00 | 0.00 | 0.00 | 86 | 1014.8 |
| 20260508034500 | 7 | 140 | 4.8 | 8.0 | 0.00 | 0.00 | 0.00 | 86 | 1014.8 |
| 20260508033456 | 7 | 148 | 3.2 | 6.4 | 0.00 | 0.00 | 0.00 | 86 | 1014.7 |
| 20260508032959 | 7 | 148 | 3.2 | 6.4 | 0.00 | 0.00 | 0.00 | 85 | 1014.7 |
| 20260508032456 | 7 | 147 | 3.2 | 4.8 | 0.00 | 0.00 | 0.00 | 85 | 1014.7 |
| 20260508031459 | 8 | 142 | 3.2 | 6.4 | 0.00 | 0.00 | 0.00 | 85 | 1014.7 |
| 20260508030957 | 8 | 141 | 4.8 | 6.4 | 0.00 | 0.00 | 0.00 | 85 | 1014.7 |
| 20260508030456 | 8 | 144 | 3.2 | 6.4 | 0.00 | 0.00 | 0.00 | 85 | 1014.7 |
| 20260508024459 | 8 | 138 | 4.8 | 8.0 | 0.00 | 0.00 | 0.00 | 85 | 1014.7 |
| 20260508022457 | 7 | 136 | 1.6 | 4.8 | 0.00 | 0.00 | 0.00 | 85 | 1014.7 |
| 20260508021956 | 7 | 143 | 1.6 | 4.8 | 0.00 | 0.00 | 0.00 | 85 | 1014.7 |
| 20260508021459 | 8 | 147 | 1.6 | 4.8 | 0.00 | 0.00 | 0.00 | 84 | 1014.7 |
| 20260508020958 | 8 | 146 | 3.2 | 4.8 | 0.00 | 0.00 | 0.00 | 84 | 1014.7 |
| 20260508015959 | 8 | 146 | 3.2 | 6.4 | 0.00 | 0.00 | 0.00 | 84 | 1014.7 |
| 20260508015456 | 8 | 148 | 4.8 | 8.0 | 0.00 | 0.00 | 0.00 | 83 | 1014.7 |
| 20260508014956 | 8 | 142 | 4.8 | 8.0 | 0.00 | 0.00 | 0.00 | 84 | 1014.7 |
| 20260508013956 | 8 | 138 | 6.4 | 9.7 | 0.00 | 0.00 | 0.00 | 85 | 1014.6 |
| 20260508013457 | 8 | 140 | 6.4 | 9.7 | 0.00 | 0.00 | 0.00 | 86 | 1014.6 |
| 20260508012959 | 7 | 142 | 4.8 | 8.0 | 0.00 | 0.00 | 0.00 | 86 | 1014.7 |
| 20260508012456 | 7 | 143 | 3.2 | 6.4 | 0.00 | 0.00 | 0.00 | 87 | 1014.7 |
| 20260508011957 | 7 | 157 | 3.2 | 6.4 | 0.00 | 0.00 | 0.00 | 86 | 1014.7 |
| 20260508011500 | 7 | 172 | 3.2 | 4.8 | 0.00 | 0.00 | 0.00 | 86 | 1014.7 |
| 20260508010456 | 7 | 0 | 0.0 | 3.2 | 0.00 | 0.00 | 0.00 | 85 | 1014.7 |
| 20260508005959 | 8 | 0 | 0.0 | 3.2 | 0.00 | 0.00 | 0.00 | 84 | 1014.8 |
| 20260508005456 | 8 | 0 | 0.0 | 3.2 | 0.00 | 0.00 | 0.00 | 83 | 1014.8 |
| 20260508004956 | 8 | 0 | 0.0 | 3.2 | 0.00 | 0.00 | 0.00 | 82 | 1014.7 |
| 20260508004458 | 8 | 0 | 0.0 | 3.2 | 0.00 | 0.00 | 0.00 | 82 | 1014.7 |
| 20260508003956 | 9 | 173 | 1.6 | 3.2 | 0.00 | 0.00 | 0.00 | 81 | 1014.8 |
| 20260508003456 | 9 | 173 | 1.6 | 6.4 | 0.00 | 0.00 | 0.00 | 80 | 1014.7 |
| 20260508002959 | 9 | 171 | 3.2 | 6.4 | 0.00 | 0.00 | 0.00 | 79 | 1014.7 |
| 20260508002457 | 10 | 165 | 3.2 | 6.4 | 0.00 | 0.00 | 0.00 | 79 | 1014.7 |
| 20260508001956 | 10 | 155 | 3.2 | 6.4 | 0.00 | 0.00 | 0.00 | 78 | 1014.7 |
| 20260508001459 | 10 | 159 | 3.2 | 4.8 | 0.00 | 0.00 | 0.00 | 78 | 1014.7 |
| 20260508000457 | 10 | 159 | 4.8 | 8.0 | 0.00 | 0.00 | 0.00 | 77 | 1014.8 |
| 20260507235959 | 10 | 154 | 4.8 | 8.0 | 0.00 | 0.00 | 0.00 | 77 | 1014.8 |
| 20260507235456 | 10 | 156 | 4.8 | 8.0 | 0.00 | 0.00 | 0.00 | 76 | 1014.8 |
| 20260507234956 | 10 | 157 | 3.2 | 8.0 | 0.00 | 0.00 | 0.00 | 76 | 1014.8 |
| 20260507234458 | 10 | 148 | 3.2 | 8.0 | 0.00 | 0.00 | 0.00 | 77 | 1014.7 |
| 20260507233956 | 10 | 142 | 4.8 | 8.0 | 0.00 | 0.00 | 0.00 | 77 | 1014.8 |
| 20260507233456 | 10 | 142 | 4.8 | 8.0 | 0.00 | 0.00 | 0.00 | 76 | 1014.7 |
| 20260507233000 | 10 | 144 | 4.8 | 8.0 | 0.00 | 0.00 | 0.00 | 76 | 1014.7 |
| 20260507232456 | 10 | 142 | 4.8 | 8.0 | 0.00 | 0.00 | 0.00 | 76 | 1014.7 |
| 20260507231956 | 10 | 141 | 4.8 | 8.0 | 0.00 | 0.00 | 0.00 | 76 | 1014.7 |
| 20260507231459 | 11 | 144 | 4.8 | 8.0 | 0.00 | 0.00 | 0.00 | 76 | 1014.7 |
| 20260507230956 | 11 | 154 | 4.8 | 8.0 | 0.00 | 0.00 | 0.00 | 76 | 1014.7 |
| 20260507230456 | 11 | 161 | 3.2 | 8.0 | 0.00 | 0.00 | 0.00 | 76 | 1014.6 |
| 20260507230004 | 11 | 153 | 3.2 | 6.4 | 0.00 | 0.00 | 0.00 | 76 | 1014.7 |
| 20260507225456 | 11 | 141 | 4.8 | 6.4 | 0.00 | 0.00 | 0.00 | 76 | 1014.7 |
| 20260507224957 | 11 | 137 | 4.8 | 8.0 | 0.00 | 0.00 | 0.00 | 76 | 1014.7 |
| 20260507224500 | 11 | 136 | 4.8 | 9.7 | 0.00 | 0.00 | 0.00 | 76 | 1014.6 |
| 20260507223956 | 11 | 135 | 4.8 | 9.7 | 0.00 | 0.00 | 0.00 | 76 | 1014.6 |
| 20260507223456 | 10 | 133 | 4.8 | 8.0 | 0.00 | 0.00 | 0.00 | 77 | 1014.6 |
| 20260507222958 | 11 | 132 | 4.8 | 8.0 | 0.00 | 0.00 | 0.00 | 77 | 1014.5 |
| 20260507222456 | 11 | 131 | 6.4 | 8.0 | 0.00 | 0.00 | 0.00 | 77 | 1014.4 |
| 20260507221458 | 11 | 135 | 4.8 | 8.0 | 0.00 | 0.00 | 0.00 | 77 | 1014.5 |
| 20260507220956 | 11 | 136 | 4.8 | 8.0 | 0.00 | 0.00 | 0.00 | 77 | 1014.5 |
| 20260507220455 | 11 | 137 | 4.8 | 6.4 | 0.00 | 0.00 | 0.00 | 77 | 1014.5 |
| 20260507220000 | 11 | 140 | 4.8 | 6.4 | 0.00 | 0.00 | 0.00 | 77 | 1014.6 |
| 20260507215456 | 11 | 143 | 3.2 | 6.4 | 0.00 | 0.00 | 0.00 | 77 | 1014.5 |
| 20260507214956 | 11 | 144 | 3.2 | 6.4 | 0.00 | 0.00 | 0.00 | 77 | 1014.5 |
| 20260507214459 | 11 | 142 | 3.2 | 6.4 | 0.00 | 0.00 | 0.00 | 77 | 1014.6 |
| 20260507213956 | 11 | 141 | 3.2 | 6.4 | 0.00 | 0.00 | 0.00 | 76 | 1014.5 |
| 20260507213455 | 11 | 153 | 3.2 | 6.4 | 0.00 | 0.00 | 0.00 | 76 | 1014.6 |
| 20260507212959 | 11 | 165 | 3.2 | 6.4 | 0.00 | 0.00 | 0.00 | 76 | 1014.6 |
| 20260507212456 | 11 | 173 | 1.6 | 4.8 | 0.00 | 0.00 | 0.00 | 75 | 1014.5 |
| 20260507211957 | 11 | 173 | 1.6 | 4.8 | 0.00 | 0.00 | 0.00 | 75 | 1014.5 |
| 20260507211459 | 11 | 154 | 3.2 | 6.4 | 0.00 | 0.00 | 0.00 | 75 | 1014.5 |
| 20260507210956 | 11 | 140 | 4.8 | 6.4 | 0.00 | 0.00 | 0.00 | 74 | 1014.4 |
| 20260507210456 | 11 | 137 | 4.8 | 6.4 | 0.00 | 0.00 | 0.00 | 75 | 1014.4 |
| 20260507210000 | 11 | 137 | 4.8 | 8.0 | 0.00 | 0.00 | 0.00 | 75 | 1014.4 |
| 20260507205456 | 11 | 133 | 4.8 | 8.0 | 0.00 | 0.00 | 0.00 | 75 | 1014.4 |
| 20260507204956 | 11 | 132 | 4.8 | 8.0 | 0.00 | 0.00 | 0.00 | 75 | 1014.2 |
| 20260507204501 | 11 | 138 | 4.8 | 8.0 | 0.00 | 0.00 | 0.00 | 75 | 1014.2 |
| 20260507203457 | 11 | 125 | 4.8 | 8.0 | 0.00 | 0.00 | 0.00 | 76 | 1014.2 |
| 20260507202959 | 11 | 116 | 3.2 | 6.4 | 0.00 | 0.00 | 0.00 | 75 | 1014.2 |
| 20260507202456 | 11 | 115 | 1.6 | 4.8 | 0.00 | 0.00 | 0.00 | 75 | 1014.1 |
| 20260507201956 | 11 | 122 | 1.6 | 4.8 | 0.00 | 0.00 | 0.00 | 75 | 1014.1 |
| 20260507201500 | 11 | 129 | 1.6 | 4.8 | 0.00 | 0.00 | 0.00 | 75 | 1014.0 |
| 20260507200956 | 11 | 131 | 1.6 | 4.8 | 0.00 | 0.00 | 0.00 | 74 | 1014.0 |
| 20260507200457 | 11 | 135 | 3.2 | 8.0 | 0.00 | 0.00 | 0.00 | 73 | 1014.0 |
| 20260507195959 | 12 | 138 | 4.8 | 9.7 | 0.00 | 0.00 | 0.00 | 73 | 1013.9 |
| 20260507194956 | 12 | 159 | 8.0 | 19.3 | 0.00 | 0.00 | 0.00 | 68 | 1014.0 |
| 20260507194458 | 12 | 162 | 11.3 | 22.5 | 0.00 | 0.00 | 0.00 | 68 | 1014.1 |
| 20260507193956 | 12 | 165 | 9.7 | 22.5 | 0.00 | 0.00 | 0.00 | 67 | 1014.0 |
| 20260507193456 | 12 | 167 | 9.7 | 17.7 | 0.00 | 0.00 | 0.00 | 66 | 1014.0 |
| 20260507192958 | 12 | 163 | 8.0 | 19.3 | 0.00 | 0.00 | 0.00 | 66 | 1013.9 |
| 20260507192457 | 12 | 163 | 8.0 | 19.3 | 0.00 | 0.00 | 0.00 | 65 | 1013.9 |
| 20260507191956 | 12 | 161 | 6.4 | 16.1 | 0.00 | 0.00 | 0.00 | 64 | 1013.9 |
| 20260507191459 | 12 | 147 | 4.8 | 9.7 | 0.00 | 0.00 | 0.00 | 63 | 1013.8 |
| 20260507190956 | 12 | 144 | 4.8 | 9.7 | 0.00 | 0.00 | 0.00 | 62 | 1013.8 |
| 20260507185958 | 13 | 162 | 6.4 | 14.5 | 0.00 | 0.00 | 0.00 | 61 | 1013.7 |
| 20260507184957 | 13 | 152 | 4.8 | 8.0 | 0.00 | 0.00 | 0.00 | 60 | 1013.6 |
| 20260507184458 | 13 | 152 | 4.8 | 8.0 | 0.00 | 0.00 | 0.00 | 60 | 1013.5 |
| 20260507182958 | 13 | 150 | 6.4 | 9.7 | 0.00 | 0.00 | 0.00 | 59 | 1013.4 |
| 20260507182456 | 13 | 140 | 6.4 | 9.7 | 0.00 | 0.00 | 0.00 | 59 | 1013.4 |
| 20260507181500 | 13 | 141 | 6.4 | 12.9 | 0.00 | 0.00 | 0.00 | 58 | 1013.3 |
| 20260507180956 | 13 | 139 | 6.4 | 11.3 | 0.00 | 0.00 | 0.00 | 59 | 1013.2 |
| 20260507180456 | 13 | 138 | 6.4 | 11.3 | 0.00 | 0.00 | 0.00 | 59 | 1013.2 |
| 20260507175958 | 13 | 137 | 6.4 | 9.7 | 0.00 | 0.00 | 0.00 | 58 | 1013.2 |
| 20260507175457 | 13 | 139 | 4.8 | 8.0 | 0.00 | 0.00 | 0.00 | 59 | 1013.2 |
| 20260507174956 | 13 | 146 | 4.8 | 8.0 | 0.00 | 0.00 | 0.00 | 59 | 1013.3 |
| 20260507173957 | 13 | 144 | 4.8 | 11.3 | 0.00 | 0.00 | 0.00 | 57 | 1013.3 |
| 20260507173456 | 13 | 149 | 6.4 | 14.5 | 0.00 | 0.00 | 0.00 | 57 | 1013.2 |
| 20260507173000 | 13 | 152 | 6.4 | 14.5 | 0.00 | 0.00 | 0.00 | 56 | 1013.3 |
| 20260507172455 | 14 | 145 | 6.4 | 14.5 | 0.00 | 0.00 | 0.00 | 56 | 1013.2 |
| 20260507171956 | 14 | 141 | 8.0 | 14.5 | 0.00 | 0.00 | 0.00 | 55 | 1013.2 |
| 20260507171458 | 14 | 142 | 9.7 | 17.7 | 0.00 | 0.00 | 0.00 | 54 | 1013.2 |
| 20260507170956 | 14 | 138 | 9.7 | 17.7 | 0.00 | 0.00 | 0.00 | 54 | 1013.3 |
| 20260507165958 | 14 | 150 | 8.0 | 17.7 | 0.00 | 0.00 | 0.00 | 54 | 1013.3 |
| 20260507164459 | 15 | 149 | 8.0 | 17.7 | 0.00 | 0.00 | 0.00 | 52 | 1013.3 |
| 20260507163956 | 15 | 145 | 9.7 | 17.7 | 0.00 | 0.00 | 0.00 | 52 | 1013.2 |
| 20260507163455 | 15 | 147 | 11.3 | 19.3 | 0.00 | 0.00 | 0.00 | 52 | 1013.2 |
| 20260507162959 | 15 | 149 | 11.3 | 19.3 | 0.00 | 0.00 | 0.00 | 50 | 1013.2 |
| 20260507162456 | 15 | 145 | 9.7 | 16.1 | 0.00 | 0.00 | 0.00 | 52 | 1013.3 |
| 20260507161956 | 15 | 149 | 9.7 | 17.7 | 0.00 | 0.00 | 0.00 | 51 | 1013.2 |
| 20260507161459 | 15 | 152 | 9.7 | 17.7 | 0.00 | 0.00 | 0.00 | 51 | 1013.2 |
| 20260507160955 | 16 | 150 | 8.0 | 14.5 | 0.00 | 0.00 | 0.00 | 51 | 1013.2 |
| 20260507160458 | 16 | 140 | 9.7 | 16.1 | 0.00 | 0.00 | 0.00 | 52 | 1013.2 |
| 20260507155958 | 15 | 132 | 11.3 | 17.7 | 0.00 | 0.00 | 0.00 | 51 | 1013.3 |
| 20260507155456 | 15 | 138 | 9.7 | 17.7 | 0.00 | 0.00 | 0.00 | 51 | 1013.3 |
| 20260507154955 | 15 | 143 | 9.7 | 19.3 | 0.00 | 0.00 | 0.00 | 52 | 1013.3 |
| 20260507154459 | 16 | 140 | 9.7 | 19.3 | 0.00 | 0.00 | 0.00 | 51 | 1013.3 |
| 20260507153456 | 16 | 144 | 11.3 | 16.1 | 0.00 | 0.00 | 0.00 | 51 | 1013.4 |
| 20260507152457 | 16 | 157 | 9.7 | 19.3 | 0.00 | 0.00 | 0.00 | 50 | 1013.4 |
| 20260507151956 | 16 | 143 | 9.7 | 17.7 | 0.00 | 0.00 | 0.00 | 50 | 1013.4 |
| 20260507151458 | 16 | 140 | 11.3 | 17.7 | 0.00 | 0.00 | 0.00 | 52 | 1013.5 |
| 20260507150956 | 16 | 144 | 11.3 | 17.7 | 0.00 | 0.00 | 0.00 | 52 | 1013.6 |
| 20260507150456 | 16 | 146 | 11.3 | 19.3 | 0.00 | 0.00 | 0.00 | 51 | 1013.5 |
| 20260507150000 | 16 | 157 | 11.3 | 19.3 | 0.00 | 0.00 | 0.00 | 50 | 1013.6 |
| 20260507144956 | 16 | 150 | 11.3 | 19.3 | 0.00 | 0.00 | 0.00 | 50 | 1013.6 |
| 20260507143956 | 16 | 142 | 9.7 | 19.3 | 0.00 | 0.00 | 0.00 | 52 | 1013.8 |
| 20260507143456 | 16 | 157 | 11.3 | 19.3 | 0.00 | 0.00 | 0.00 | 51 | 1013.8 |
| 20260507142959 | 16 | 163 | 11.3 | 22.5 | 0.00 | 0.00 | 0.00 | 51 | 1013.9 |
| 20260507142456 | 16 | 165 | 9.7 | 22.5 | 0.00 | 0.00 | 0.00 | 50 | 1013.9 |
| 20260507141956 | 16 | 163 | 9.7 | 16.1 | 0.00 | 0.00 | 0.00 | 51 | 1014.1 |
| 20260507140955 | 16 | 161 | 9.7 | 19.3 | 0.00 | 0.00 | 0.00 | 51 | 1014.2 |
| 20260507140457 | 16 | 163 | 9.7 | 17.7 | 0.00 | 0.00 | 0.00 | 51 | 1014.2 |
| 20260507140000 | 16 | 157 | 9.7 | 17.7 | 0.00 | 0.00 | 0.00 | 54 | 1014.2 |
| 20260507134956 | 15 | 147 | 9.7 | 19.3 | 0.00 | 0.00 | 0.00 | 53 | 1014.3 |
| 20260507134459 | 16 | 142 | 11.3 | 20.9 | 0.00 | 0.00 | 0.00 | 53 | 1014.4 |
| 20260507133956 | 16 | 140 | 9.7 | 20.9 | 0.00 | 0.00 | 0.00 | 55 | 1014.3 |
| 20260507133455 | 15 | 156 | 9.7 | 20.9 | 0.00 | 0.00 | 0.00 | 56 | 1014.3 |
| 20260507132958 | 15 | 168 | 12.9 | 22.5 | 0.00 | 0.00 | 0.00 | 53 | 1014.4 |
| 20260507131956 | 15 | 163 | 12.9 | 22.5 | 0.00 | 0.00 | 0.00 | 54 | 1014.5 |
| 20260507131458 | 15 | 161 | 12.9 | 22.5 | 0.00 | 0.00 | 0.00 | 54 | 1014.5 |
| 20260507130955 | 15 | 157 | 9.7 | 20.9 | 0.00 | 0.00 | 0.00 | 55 | 1014.5 |
| 20260507130455 | 15 | 157 | 9.7 | 19.3 | 0.00 | 0.00 | 0.00 | 56 | 1014.5 |
| 20260507125958 | 15 | 157 | 9.7 | 22.5 | 0.00 | 0.00 | 0.00 | 55 | 1014.5 |
| 20260507125457 | 15 | 164 | 9.7 | 22.5 | 0.00 | 0.00 | 0.00 | 54 | 1014.6 |
| 20260507124957 | 16 | 160 | 9.7 | 17.7 | 0.00 | 0.00 | 0.00 | 54 | 1014.5 |
| 20260507124458 | 16 | 141 | 11.3 | 17.7 | 0.00 | 0.00 | 0.00 | 57 | 1014.5 |
| 20260507123956 | 16 | 140 | 11.3 | 19.3 | 0.00 | 0.00 | 0.00 | 54 | 1014.6 |
| 20260507123455 | 15 | 138 | 9.7 | 19.3 | 0.00 | 0.00 | 0.00 | 54 | 1014.6 |
| 20260507122958 | 15 | 139 | 9.7 | 20.9 | 0.00 | 0.00 | 0.00 | 55 | 1014.6 |
| 20260507122455 | 15 | 152 | 11.3 | 20.9 | 0.00 | 0.00 | 0.00 | 55 | 1014.6 |
| 20260507121955 | 15 | 159 | 11.3 | 20.9 | 0.00 | 0.00 | 0.00 | 55 | 1014.6 |
| 20260507121458 | 15 | 159 | 12.9 | 22.5 | 0.00 | 0.00 | 0.00 | 57 | 1014.7 |
| 20260507120955 | 15 | 169 | 11.3 | 22.5 | 0.00 | 0.00 | 0.00 | 54 | 1014.7 |
| 20260507120456 | 15 | 178 | 9.7 | 20.9 | 0.00 | 0.00 | 0.00 | 56 | 1014.7 |
| 20260507115958 | 15 | 169 | 12.9 | 20.9 | 0.00 | 0.00 | 0.00 | 55 | 1014.8 |
| 20260507115457 | 15 | 164 | 12.9 | 20.9 | 0.00 | 0.00 | 0.00 | 54 | 1014.9 |
| 20260507114956 | 14 | 159 | 9.7 | 19.3 | 0.00 | 0.00 | 0.00 | 55 | 1014.8 |
| 20260507113956 | 14 | 157 | 9.7 | 19.3 | 0.00 | 0.00 | 0.00 | 57 | 1014.8 |
| 20260507112958 | 13 | 163 | 9.7 | 19.3 | 0.00 | 0.00 | 0.00 | 59 | 1014.9 |
| 20260507112456 | 13 | 170 | 9.7 | 19.3 | 0.00 | 0.00 | 0.00 | 59 | 1014.8 |
| 20260507111956 | 13 | 169 | 9.7 | 19.3 | 0.00 | 0.00 | 0.00 | 59 | 1014.9 |
| 20260507111459 | 13 | 158 | 9.7 | 17.7 | 0.00 | 0.00 | 0.00 | 60 | 1014.8 |
| 20260507110957 | 13 | 147 | 8.0 | 17.7 | 0.00 | 0.00 | 0.00 | 63 | 1014.9 |
| 20260507110455 | 13 | 138 | 8.0 | 12.9 | 0.00 | 0.00 | 0.00 | 65 | 1014.9 |
| 20260507105959 | 12 | 141 | 8.0 | 12.9 | 0.00 | 0.00 | 0.00 | 66 | 1015.0 |
| 20260507105456 | 12 | 151 | 8.0 | 14.5 | 0.00 | 0.00 | 0.00 | 68 | 1015.0 |